This demonstration page uses our WeatherBlox Daily Observations layout. Learn more.

Left ArrowRight Arrow

39.92423, -83.80882

Hourly Observations for March 19, 2018

Temp ( °F °C ) Dew Point ( °F °C ) Humidity (%) Winds ( mph kmh ) Pressure ( in mb ) Visibility ( mi km ) Precip ( " mm )
12:56 am 00:56 Clear 34 1.1 24 -4.4 67 67 ENE 3 6 29.92 1013 10 16 N/A
2:56 am 02:56 Clear 34 1.1 23 -5 64 64 ENE 6 9 29.90 1013 10 16 N/A
3:56 am 03:56 Clear 33 0.6 24 -4.4 70 70 E 3 6 29.89 1012 10 16 N/A
4:56 am 04:56 Clear 31 -0.6 24 -4.4 76 76 NE 3 6 29.87 1012 10 16 N/A
5:56 am 05:56 Clear 29 -1.7 25 -3.9 85 85 NE 3 6 29.88 1012 10 16 N/A
6:56 am 06:56 Clear 30 -1.1 25 -3.9 82 82 ENE 6 9 29.88 1012 10 16 N/A
7:56 am 07:56 Sunny 31 -0.6 26 -3.3 82 82 ENE 5 7 29.90 1012 10 16 N/A
8:56 am 08:56 Sunny 33 0.6 28 -2.2 82 82 NE 9 15 29.89 1012 10 16 N/A
9:56 am 09:56 Sunny 41 5 30 -1.1 65 65 ENE 13 20 29.89 1012 10 16 N/A
10:56 am 10:56 Sunny 46 7.8 29 -1.7 51 51 E 14 22 29.88 1012 10 16 N/A
11:56 am 11:56 Sunny 51 10.6 30 -1.1 44 44 ENE 14 22 29.88 1012 10 16 N/A
12:56 pm 12:56 Sunny 54 12.2 29 -1.7 38 38 ENE 13 20 29.86 1011 10 16 N/A
1:56 pm 13:56 Sunny 56 13.3 26 -3.3 32 32 NE 14 22 29.83 1010 10 16 N/A
2:56 pm 14:56 Sunny 57 13.9 25 -3.9 29 29 ENE 12 19 29.80 1009 10 16 N/A
3:56 pm 15:56 Sunny 58 14.4 25 -3.9 28 28 ENE 13 20 29.78 1008 10 16 N/A
4:56 pm 16:56 Sunny 56 13.3 25 -3.9 30 30 ENE 17 28 29.74 1007 10 16 N/A
5:56 pm 17:56 Sunny 54 12.2 26 -3.3 34 34 NE 18 30 29.75 1007 10 16 N/A
6:56 pm 18:56 Sunny 49 9.4 29 -1.7 46 46 NNE 22 35 29.74 1007 10 16 N/A
7:56 pm 19:56 Clear 43 6.1 27 -2.8 53 53 NNE 24 39 29.72 1007 10 16 N/A
8:56 pm 20:56 Clear 39 3.9 24 -4.4 55 55 NE 23 37 29.74 1007 10 16 N/A
9:56 pm 21:56 Clear 37 2.8 23 -5 57 57 NE 18 30 29.75 1008 10 16 N/A
10:56 pm 22:56 Clear 34 1.1 21 -6.1 59 59 NE 21 33 29.74 1007 10 16 N/A
11:56 pm 23:56 Clear 33 0.6 18 -7.8 54 54 NE 21 33 29.73 1007 10 16 N/A

Powered by AerisWeather